Wind_Speed
10 10 9 8 7 7 6 5 4 4 4 4 4 5 7 11 14 16 18 18 19 19 18 18 18 18 17 17 16 14 13 13 14 15 16 19 20 20 20 19 17 15 14
13 12 12 11 10 10 10 9 7 6 6 5 6 6 8 11 15 18 20 22 23 23 23 23 23 22 22 21 20 19 18 17 16 16 17 19 21 22 22 21 19 17 15
16 15 14 13 13 13 14 13 12 10 9 9 9 9 11 13 15 18 21 24 25 26 27 27 26 26 26 25 24 23 22 21 19 18 18 19 20 23 24 23 21 19 18
19 17 16 16 16 17 17 17 15 14 13 13 13 13 14 15 17 19 21 24 27 28 29 30 29 29 28 28 26 24 23 23 22 21 21 20 20 21 24 25 23 21 20
21 20 20 19 19 20 20 19 19 18 17 17 17 17 17 18 19 21 23 25 27 28 29 30 30 29 28 28 26 24 23 23 24 23 22 22 21 20 22 25 24 22 20
24 23 23 23 22 22 22 21 21 20 20 20 20 20 21 21 21 23 24 25 26 27 28 28 29 28 27 27 26 25 23 23 24 24 24 23 22 21 21 22 21 20 19
27 26 26 25 25 24 24 23 23 23 23 23 23 23 23 24 24 25 25 26 26 27 28 27 27 27 26 26 26 26 24 23 23 25 25 24 23 22 21 20 19 18 18
31 29 27 26 26 25 24 24 24 25 25 25 25 25 26 26 26 26 26 26 27 27 27 27 26 26 25 26 26 25 25 24 23 24 25 25 25 24 23 22 20 19 18
34 32 29 27 26 25 25 25 25 26 26 25 25 26 26 27 27 27 26 26 26 27 27 27 26 26 26 26 25 25 25 25 24 24 24 25 26 25 25 24 23 21 20
36 34 31 28 26 25 25 26 26 26 26 26 26 26 26 27 28 28 27 26 26 27 27 27 28 27 26 26 26 25 26 27 26 25 25 26 26 27 26 26 25 23 22
35 34 31 29 27 25 25 26 26 26 25 25 26 26 26 27 28 29 29 28 27 26 26 27 28 28 26 26 26 26 27 28 27 27 26 26 27 28 28 27 27 26 25
37 35 32 29 26 25 25 25 26 25 25 25 26 27 27 27 28 28 29 29 28 27 26 26 26 27 26 26 26 27 27 28 28 28 27 27 27 28 28 28 28 28 28
39 36 31 27 23 23 24 24 25 25 25 25 26 26 27 27 27 27 27 28 28 26 25 25 24 26 26 25 26 26 27 28 29 29 29 28 28 27 27 27 28 28 29
36 32 26 21 19 22 24 25 25 25 25 25 25 25 26 25 25 25 26 26 26 25 24 23 24 26 26 25 25 26 27 28 29 30 30 31 30 29 28 27 27 26 27
28 21 17 16 20 23 25 26 26 26 25 25 24 24 24 24 24 24 24 24 24 24 23 23 24 25 27 25 24 25 26 27 29 30 31 32 32 31 29 28 27 25 25
15 13 15 18 22 24 25 25 25 25 24 24 23 23 22 22 22 21 21 21 22 23 23 23 24 25 27 25 24 23 24 24 26 27 28 30 32 32 31 29 27 25 24
11 14 17 19 21 22 22 22 22 22 22 22 22 21 21 20 19 20 19 19 20 20 21 23 24 24 26 26 24 23 22 21 21 22 23 25 27 29 30 29 28 26 25
11 13 15 17 18 19 19 19 19 20 20 20 21 20 20 19 18 19 19 19 19 19 20 21 23 24 26 28 27 26 23 22 21 20 20 21 23 25 27 28 29 28 27
10 12 15 16 17 18 18 18 19 19 20 20 20 20 20 19 18 19 19 20 20 20 21 21 22 25 26 27 28 27 27 25 24 23 23 22 22 23 24 26 27 28 29
10 13 15 16 17 18 18 18 19 19 20 20 21 21 21 20 20 20 20 20 20 20 21 22 22 23 25 26 28 30 30 29 28 28 27 26 25 24 24 25 26 27 29
13 15 16 17 18 18 18 19 19 20 21 21 22 22 22 22 22 21 21 21 21 20 21 21 22 21 22 24 26 28 28 29 30 30 30 30 29 28 27 27 27 27 28
16 17 18 19 20 19 19 20 20 21 22 22 22 23 24 24 23 23 23 23 23 22 22 21 21 22 22 21 22 24 25 27 28 29 31 32 32 31 31 31 30 30 30
17 19 20 20 21 21 21 21 21 21 22 23 23 24 23 24 25 25 25 25 24 24 23 23 22 22 23 24 24 24 25 26 27 28 30 32 33 34 34 34 34 34 34
19 20 21 21 21 21 21 21 21 22 23 23 24 24 24 24 24 25 25 26 26 25 25 24 24 24 24 24 25 25 25 25 26 28 30 31 33 35 37 37 37 37 37
20 21 21 22 22 22 22 22 22 23 23 24 24 23 23 23 23 24 25 25 25 26 26 26 25 25 24 24 24 25 25 26 26 27 28 30 32 34 36 38 39 40 40
19 20 21 22 22 22 22 22 23 23 24 24 24 23 24 24 23 23 24 24 24 24 24 24 25 24 24 24 24 25 25 26 26 27 27 28 30 32 34 36 39 41 42
Wind_Direction
264 264 265 274 288 298 303 311 323 336 338 330 307 286 271 260 254 250 247 246 243 241 242 244 247 248 249 250 252 255 257 252 247 240 238 232 229 229 229 230 228 231 238
254 255 259 267 278 288 290 288 294 307 304 297 290 282 275 267 260 256 252 250 249 247 247 248 250 252 253 254 254 255 255 255 251 246 243 237 232 230 231 231 230 233 239
247 247 251 261 271 278 281 280 283 291 298 295 287 281 279 276 271 266 261 257 255 254 253 252 253 254 255 256 257 256 254 251 250 248 247 243 237 234 231 231 231 234 239
245 244 248 257 266 269 272 273 278 284 289 292 289 287 283 278 276 273 270 266 262 259 257 257 256 257 257 257 256 255 254 250 247 247 246 246 244 240 234 231 230 234 238
246 246 250 256 263 265 267 268 272 277 283 287 286 285 283 279 276 273 272 269 266 264 261 259 258 257 256 255 253 253 254 251 247 247 246 245 245 244 237 229 228 233 236
248 250 254 257 260 264 265 266 269 273 279 283 285 282 280 278 276 273 272 271 269 266 264 261 259 256 253 252 252 253 254 252 248 247 247 245 242 240 236 227 225 228 232
250 252 257 260 262 263 264 265 268 272 278 282 284 282 279 276 275 273 272 271 270 269 265 262 260 256 252 250 251 253 253 252 251 248 246 244 239 234 229 225 226 229 232
250 252 256 259 261 262 262 264 268 274 278 281 283 282 279 277 277 275 273 271 270 270 266 262 259 256 252 249 249 251 251 249 250 246 243 240 236 232 229 227 228 231 234
251 251 253 255 258 259 262 266 271 277 280 282 282 280 278 278 279 278 274 273 270 269 267 263 259 256 253 249 248 249 249 247 246 244 240 237 236 234 233 231 232 235 237
254 252 252 253 255 259 264 269 274 277 280 281 280 277 275 275 276 277 274 273 272 270 268 265 258 254 252 249 248 248 246 243 243 243 240 238 236 236 236 237 238 240 241
258 252 252 254 256 261 266 271 274 276 278 279 278 276 275 274 273 272 271 270 271 274 269 266 259 252 251 249 247 245 244 242 241 241 240 239 237 237 238 240 242 244 245
258 254 250 253 254 260 266 270 274 275 276 276 275 275 274 274 273 271 269 268 270 272 269 267 259 250 247 249 245 243 243 243 242 242 240 239 239 239 240 241 243 245 246
254 249 246 247 252 259 265 269 271 271 271 271 271 272 272 273 271 270 268 267 268 269 268 265 257 247 246 247 245 243 244 245 245 244 242 240 240 240 241 242 244 246 247
246 241 238 242 253 262 266 267 269 269 269 268 268 269 270 270 269 268 267 264 264 265 265 263 256 248 245 246 245 243 245 247 248 249 246 243 241 241 242 244 245 247 248
235 233 239 252 261 265 267 268 269 268 267 266 266 267 268 268 268 268 265 262 261 260 259 259 253 248 243 242 243 244 246 248 249 250 249 246 244 243 243 244 245 246 246
229 238 251 259 263 265 267 267 268 266 266 265 264 265 266 267 266 265 263 262 260 257 254 252 250 247 240 237 239 242 244 246 248 249 250 248 245 244 244 245 246 245 246
240 250 257 260 263 265 267 269 269 268 266 264 262 263 264 263 262 262 261 259 259 255 252 249 248 245 238 234 236 240 243 244 246 248 249 248 246 245 245 246 246 246 247
251 256 260 263 266 269 271 272 271 270 267 264 263 262 261 260 258 257 257 257 256 254 252 248 246 243 238 235 236 238 240 243 246 249 250 251 249 248 247 249 249 249 250
260 266 268 271 273 274 276 276 275 273 269 266 264 263 261 260 257 255 255 254 253 253 252 252 249 244 240 237 235 235 239 243 246 249 251 252 252 251 250 252 253 253 252
274 275 275 277 278 277 277 278 276 274 271 267 265 263 262 260 258 255 254 252 252 253 252 251 251 249 243 240 239 240 242 245 248 250 252 253 254 253 252 252 253 254 253
284 283 281 280 280 278 278 278 277 276 273 270 266 263 262 260 258 256 254 253 253 252 252 252 250 251 249 246 245 244 246 249 252 253 252 253 255 254 253 252 252 254 255
286 286 284 282 280 280 278 277 277 277 276 273 269 265 262 260 258 256 255 254 253 253 252 252 251 252 253 251 251 249 251 253 254 254 254 254 254 254 254 253 253 254 255
288 287 286 285 284 282 279 278 278 276 274 272 269 266 264 260 258 256 255 253 252 252 251 251 250 252 254 256 257 258 259 259 257 256 257 256 255 254 255 255 255 254 255
290 289 288 288 287 284 282 280 278 276 273 271 269 267 264 261 259 256 254 252 251 251 251 251 251 252 254 257 260 262 263 263 262 261 260 259 257 256 255 255 255 255 254
292 291 290 290 289 287 284 281 279 277 275 273 269 267 264 262 259 255 254 252 250 249 250 251 253 254 256 259 261 262 264 265 266 266 265 264 262 261 258 256 255 255 255
296 294 292 291 290 288 286 284 281 279 277 274 270 267 263 261 258 255 254 252 249 249 250 251 253 254 256 259 260 261 263 265 266 267 267 267 266 264 262 260 258 257 256
Height
5900 5900 5899 5899 5899 5898 5897 5897 5896 5895 5894 5893 5893 5892 5892 5892 5891 5892 5892 5892 5893 5893 5893 5894 5895 5895 5896 5896 5897 5897 5897 5897 5897 5897 5898 5899 5901 5903 5905 5906 5908 5909 5910
5897 5896 5896 5896 5895 5895 5895 5894 5893 5893 5892 5891 5891 5890 5890 5889 5889 5888 5888 5888 5889 5889 5890 5890 5891 5891 5892 5893 5894 5894 5894 5894 5894 5894 5895 5896 5897 5899 5901 5903 5905 5906 5907
5893 5892 5892 5892 5892 5891 5891 5891 5890 5889 5889 5888 5888 5887 5887 5886 5886 5885 5884 5884 5884 5884 5885 5885 5886 5887 5888 5889 5890 5890 5890 5891 5891 5891 5891 5892 5893 5895 5897 5900 5902 5904 5905
5888 5888 5888 5888 5888 5887 5887 5887 5886 5886 5885 5885 5884 5884 5883 5882 5882 5881 5880 5879 5879 5879 5879 5880 5881 5882 5883 5884 5885 5886 5886 5887 5887 5887 5887 5888 5889 5891 5893 5896 5898 5900 5902
5883 5883 5884 5884 5883 5883 5883 5882 5882 5882 5882 5881 5881 5880 5879 5878 5877 5876 5875 5874 5873 5873 5873 5874 5875 5876 5877 5878 5879 5881 5881 5882 5883 5883 5884 5884 5885 5887 5889 5891 5894 5896 5898
5877 5878 5878 5878 5878 5878 5878 5878 5878 5878 5877 5877 5876 5876 5875 5874 5873 5871 5870 5869 5868 5867 5867 5868 5869 5869 5870 5872 5874 5875 5876 5877 5878 5879 5880 5881 5882 5883 5885 5887 5890 5892 5894
5871 5872 5872 5873 5873 5873 5873 5873 5873 5872 5872 5871 5871 5871 5870 5868 5867 5866 5865 5863 5862 5862 5861 5861 5862 5863 5864 5866 5868 5870 5871 5872 5873 5875 5876 5877 5878 5880 5882 5884 5886 5888 5890
5864 5865 5866 5867 5867 5867 5867 5867 5867 5867 5866 5866 5865 5864 5863 5863 5861 5860 5859 5857 5856 5856 5855 5855 5856 5857 5859 5860 5862 5864 5866 5867 5868 5870 5872 5873 5875 5877 5879 5881 5883 5885 5886
5857 5858 5859 5860 5860 5861 5861 5862 5862 5861 5860 5859 5859 5858 5857 5856 5854 5854 5852 5851 5850 5850 5849 5850 5850 5852 5853 5855 5857 5859 5860 5862 5864 5865 5867 5869 5871 5873 5875 5877 5879 5881 5883
5849 5850 5851 5853 5854 5855 5855 5856 5856 5855 5854 5853 5852 5851 5850 5849 5848 5847 5846 5845 5844 5844 5844 5844 5844 5846 5847 5849 5851 5853 5855 5857 5859 5861 5863 5865 5867 5869 5871 5873 5875 5877 5878
5842 5843 5844 5846 5847 5848 5849 5849 5849 5849 5848 5846 5845 5844 5844 5843 5841 5841 5840 5839 5839 5838 5837 5837 5838 5839 5841 5843 5845 5847 5850 5852 5854 5856 5858 5860 5862 5864 5866 5868 5870 5872 5873
5836 5837 5838 5839 5840 5841 5842 5842 5842 5842 5841 5840 5839 5838 5837 5836 5834 5834 5833 5832 5832 5832 5832 5831 5831 5833 5835 5837 5839 5842 5844 5847 5849 5851 5853 5855 5857 5859 5861 5862 5864 5866 5868
5827 5828 5830 5832 5833 5835 5835 5836 5835 5835 5834 5833 5832 5831 5829 5828 5827 5827 5826 5825 5825 5826 5825 5826 5826 5827 5830 5832 5834 5837 5839 5842 5844 5847 5849 5850 5852 5854 5855 5857 5859 5860 5862
5817 5819 5821 5823 5826 5828 5828 5828 5828 5827 5827 5826 5825 5824 5822 5821 5820 5819 5819 5819 5819 5820 5820 5820 5821 5822 5824 5827 5829 5832 5834 5837 5839 5841 5843 5845 5847 5849 5850 5852 5853 5854 5856
5809 5811 5814 5817 5819 5821 5821 5821 5820 5819 5819 5818 5817 5817 5815 5814 5813 5813 5813 5813 5814 5814 5815 5815 5815 5817 5819 5822 5824 5826 5829 5831 5833 5835 5837 5839 5841 5843 5845 5846 5847 5849 5850
5804 5807 5809 5811 5813 5814 5814 5813 5812 5811 5810 5810 5809 5809 5808 5808 5807 5807 5807 5807 5807 5808 5809 5809 5810 5811 5813 5816 5819 5821 5823 5825 5827 5829 5831 5832 5834 5837 5839 5841 5842 5843 5844
5801 5803 5805 5806 5807 5807 5807 5806 5805 5804 5803 5802 5802 5802 5802 5801 5801 5801 5801 5802 5802 5803 5803 5804 5805 5806 5809 5811 5814 5816 5818 5820 5822 5823 5825 5826 5828 5830 5832 5834 5836 5837 5839
5798 5799 5800 5801 5801 5801 5800 5800 5798 5798 5797 5796 5796 5796 5796 5795 5795 5796 5796 5797 5797 5798 5799 5799 5800 5801 5804 5806 5809 5811 5813 5815 5817 5819 5820 5821 5823 5824 5826 5828 5829 5831 5832
5794 5795 5796 5796 5796 5795 5794 5793 5792 5792 5791 5791 5790 5790 5790 5790 5790 5790 5791 5792 5792 5793 5794 5795 5795 5797 5799 5801 5803 5806 5808 5810 5812 5813 5815 5817 5818 5819 5821 5822 5823 5824 5826
5791 5791 5791 5790 5790 5789 5788 5787 5786 5786 5785 5784 5784 5784 5783 5784 5784 5785 5786 5786 5787 5788 5789 5790 5790 5792 5793 5795 5798 5800 5802 5804 5806 5808 5810 5811 5813 5814 5815 5816 5817 5818 5819
5786 5786 5785 5785 5784 5783 5783 5782 5780 5779 5778 5777 5777 5777 5777 5777 5778 5779 5780 5781 5782 5783 5784 5785 5785 5786 5788 5789 5792 5793 5796 5798 5800 5801 5803 5805 5806 5808 5809 5810 5811 5812 5813
5781 5781 5780 5779 5778 5777 5777 5776 5774 5773 5772 5771 5771 5771 5771 5771 5771 5773 5774 5775 5776 5777 5779 5780 5780 5781 5782 5784 5786 5787 5789 5791 5793 5794 5795 5797 5799 5800 5801 5803 5804 5805 5806
5776 5775 5774 5773 5772 5771 5770 5769 5768 5767 5765 5764 5764 5764 5764 5764 5765 5766 5767 5768 5770 5771 5773 5774 5775 5776 5777 5779 5780 5781 5783 5784 5785 5786 5787 5789 5790 5792 5793 5795 5796 5797 5798
5771 5769 5767 5766 5765 5764 5763 5762 5761 5760 5759 5758 5757 5757 5757 5757 5758 5759 5760 5762 5763 5765 5767 5768 5770 5771 5772 5773 5774 5775 5776 5777 5778 5779 5779 5780 5781 5782 5784 5785 5787 5788 5789
5765 5763 5761 5759 5758 5757 5756 5755 5754 5753 5752 5751 5750 5750 5750 5751 5752 5752 5753 5755 5757 5758 5760 5762 5764 5765 5766 5768 5769 5770 5770 5771 5771 5771 5772 5772 5772 5773 5774 5775 5777 5778 5779
5759 5757 5755 5753 5751 5750 5749 5748 5747 5746 5745 5744 5744 5744 5744 5744 5745 5746 5747 5748 5750 5752 5754 5756 5758 5759 5761 5762 5763 5764 5764 5765 5765 5765 5764 5765 5764 5764 5765 5765 5766 5768 5769